Regional Weather Roundup
Issued by NWS

Home | Current Version | Previous Version | Text Only | Print | Product List | Glossary On
Versions: 1 2 3 4 5 6 7 8 9 10 11 12 13 14 15 16 17 18 19 20 21 22 23 24 25 26 27 28 29 30 31 32 33 34 35 36 37 38 39 40 41 42 43 44 45 46 47 48 49 50
847
ASUS43 KBIS 240310
RWRND

NORTH DAKOTA REGIONAL WEATHER ROUNDUP
NATIONAL WEATHER SERVICE BISMARCK ND
900 PM CST THU NOV 23 2017

NOTE: "FAIR" INDICATES FEW OR NO CLOUDS BELOW 12,000 FEET WITH NO
SIGNIFICANT WEATHER AND/OR OBSTRUCTIONS TO VISIBILITY.


NDZ001>003-009>011-017-240400-
NORTHWEST NORTH DAKOTA

CITY           SKY/WX    TMP DP  RH WIND       PRES   REMARKS
WILLISTON      PTCLDY    55  36  48 SW9       29.38F
MINOT          CLEAR     55  37  50 SW16      29.32F
MINOT AFB      CLEAR     56  37  50 W15       29.30F
$$

NDZ018>021-031>035-040>046-240400-
SOUTHWEST NORTH DAKOTA

CITY           SKY/WX    TMP DP  RH WIND       PRES   REMARKS
BISMARCK       CLEAR     53  36  52 SW8       29.46F
DICKINSON      CLEAR     54  35  48 SW16      29.47F
GARRISON         N/A     51  38  60 W15       29.38F
HETTINGER ARPT CLEAR     44  34  67 NW6       29.57F
$$

NDZ004>008-012>016-024-026-027-054-240400-
NORTHEAST NORTH DAKOTA

CITY           SKY/WX    TMP DP  RH WIND       PRES   REMARKS
GRAND FORKS    PTCLDY    37  34  89 S12       29.35F
GRND FRKS AFB  CLEAR     41  36  82 SW10      29.34F
DEVILS LAKE    CLEAR     49  37  63 SW17      29.34F
$$

NDZ022-023-025-028>030-036>039-047>053-240400-
SOUTHEAST NORTH DAKOTA

CITY           SKY/WX    TMP DP  RH WIND       PRES   REMARKS
FARGO          PTCLDY    42  34  73 S12       29.43F
JAMESTOWN      CLEAR     52  38  58 SW14      29.42F
$$





USA.gov is the U.S. government's official web portal to all federal, state and local government web resources and services.